www.pogodaiklimat.ru

АРХИВ ПОГОДЫ в Харькове

Время (UTC), дата Ветер
(напр.,м/с)
 
Видим.   Явления Облачность Т
(С)
Тd
(С)
f
(%)
Тe
(С)
Тes
(С)
Комфортность P
(гПа)
Po
(гПа)
Тmin
(С)
Tmax
(С)
R
(мм)
S
(см)
00 25.06 С 2 10 км 3/0
[Ci fib]
+19.7 +13.6 68 +22 +22 комфорт 1021.9 1003.7
03 25.06 СЗ 2 10 км 3/0
[Ci fib]
+19.7 +15.3 76 +22 +23 комфорт 1022.1 1003.9
06 25.06 СВ 3 10 км ясно +24.8 +13.8 50 +27 +35 жарко 1021.8 1003.9 +18.0
09 25.06 СВ 2 10 км 6/6 1000 м
[Cu hum]
+25.8 +13.4 46 +28 +35 жарко 1021.7 1003.9
12 25.06 В 2 10 км 6/6 1000 м
[Cu hum]
+27.3 +13.0 41 +29 +34 жарко 1021.1 1003.4
15 25.06 СВ 3 10 км 4/4 1000 м
[Sc diur, vesp]
+26.9 +13.6 44 +29 +31 жарко 1020.5 1002.8
18 25.06 В 2 10 км 3/0
[Ac trans]
+23.7 +13.8 54 +26 +26 жарко 1020.4 1002.5 +28.3
21 25.06 штиль 0 10 км ясно +21.7 +14.8 65 +25 +25 комфорт 1020.7 1002.7
00 26.06 С 1 10 км ясно +18.3 +16.3 88 +20 +20 тепло 1020.5 1002.3
03 26.06 СЗ 2 10 км ясно +19.4 +16.2 82 +22 +23 комфорт 1021.1 1003.0
06 26.06 штиль 0 10 км ясно +27.0 +15.4 49 +30 +43 душно 1020.6 1002.9 +17.7
09 26.06 СВ 1 10 км 4/4 1000 м
[Cu hum]
+28.8 +14.2 41 +31 +43 жарко 1019.8 1002.2
12 26.06 ЮВ 2 10 км 3/3 1000 м
[Cu hum]
+29.8 +13.9 38 +32 +41 душно 1018.1 1000.6
15 26.06 В 2 10 км ясно +29.6 +14.5 40 +32 +35 душно 1016.6 999.1
18 26.06 В 3 10 км ясно +24.6 +15.3 56 +28 +28 душно 1016.4 998.6 +30.5
21 26.06 штиль 0 10 км ясно +23.5 +15.2 60 +26 +26 жарко 1015.8 998.0
00 27.06 СЗ 1 10 км ясно +20.4 +17.5 83 +25 +25 комфорт 1015.7 997.7
03 27.06 штиль 0 10 км ясно +21.9 +19.2 85 +27 +29 душно 1015.3 997.4
06 27.06 В 2 10 км ясно +27.0 +18.1 58 +32 +41 очень
душно
1013.9 996.3 +19.0
09 27.06 Ю 3 10 км 4/4 1000 м
[Cu hum]
+29.6 +16.6 46 +33 +42 душно 1012.5 995.1
12 27.06 З 2 10 км 5/5 1000 м
[Cu hum]
+31.8 +14.6 35 +34 +40 душно 1010.9 993.6
15 27.06 СВ 1 10 км 3/3 1000 м
[Cu hum]
+29.2 +16.7 47 +33 +36 очень
душно
1009.5 992.1
18 27.06 СВ 2 10 км ясно +26.4 +16.6 55 +30 +30 душно 1008.7 991.2 +31.8
21 27.06 С 1 10 км ясно +23.2 +17.4 70 +29 +29 душно 1008.8 991.1
00 28.06 штиль 0 4000 м дымка ясно +21.2 +18.3 84 +25 +25 комфорт 1008.5 990.7
03 28.06 штиль 0 10 км ясно +22.5 +18.7 79 +28 +29 душно 1008.3 990.6
06 28.06 штиль 0 10 км 3/0
[Ci fib]
+28.4 +17.9 53 +33 +45 очень
душно
1007.6 990.2 +20.6
09 28.06 З 10 3100 м гроза, ливневой дождь 10/10 300 м
[Cb calv]
+21.8 +16.4 71 +26 +26 душно 1008.1 990.3
12 28.06 СВ 4
{19}
10 км {гроза, ливн. осадки} 8/6 600 м
[Cb calv Ci fib]
+30.5 +17.8 47 +35 +38 очень
душно
1005.9 988.7
15 28.06 СВ 3 10 км {гроза} 9/3 600 м
[Cb calv Ac trans Ci]
+28.6 +17.8 52 +33 +34 очень
душно
1005.1 987.8
18 28.06 С 2 10 км {гроза} 9/0
[Ac trans Ci fib]
+26.0 +17.6 60 +30 +30 душно 1005.9 988.4 +30.5 7
21 28.06 ЮЗ 1 10 км гроза без осадков 8/5 1000 м
[Cb calv Ac trans]
+23.4 +19.4 78 +30 +30 очень
душно
1006.3 988.7
00 29.06 СЗ 4 10 км {гроза} 6/0
[Ac trans Ci fib]
+22.0 +17.8 77 +27 +27 душно 1006.3 988.6
03 29.06 СВ 3 10 км 8/3 600 м
[Cb cap Ac trans Ci fib]
+21.5 +18.8 85 +26 +27 душно 1006.8 989.1
06 29.06 СВ 2 10 км 9/3 1000 м
[Cu med, cong Ac trans Ci]
+24.3 +19.8 76 +30 +33 очень
душно
1007.4 989.8 +20.6
09 29.06 С 6 10 км в посл. час гроза 9/5 600 м
[Cb calv Ac trans]
+24.9 +19.2 71 +30 +32 душно 1008.2 990.6
12 29.06 штиль 0 10 км гроза, ливневой дождь 9/6 960 м
[Cb calv Ac trans]
+22.6 +19.8 84 +29 +33 очень
душно
1008.8 991.1
15 29.06 С 2 10 км {гроза, ливн. осадки} 9/3 1000 м
[Sc diur, vesp Ac trans]
+24.4 +18.9 71 +29 +30 душно 1007.9 990.3
18 29.06 СВ 3 10 км {гроза, ливн. осадки} 9/5 600 м
[Cb cap Ac trans]
+23.9 +19.2 75 +29 +29 душно 1008.0 990.4 +26.9 2
21 29.06 В 5 10 км слабый ливневой дождь, в посл. час гроза 10/10 600 м
[Cb calv]
+21.3 +18.6 85 +26 +26 душно 1009.1 991.3
00 30.06 С 2 10 км {гроза, ливн. осадки} 9/8 600 м
[Cb calv Ac trans]
+20.0 +17.6 86 +24 +24 комфорт 1008.7 990.8
03 30.06 СВ 3 10 км {ливн. осадки} 9/3 1000 м
[Sc Ac trans]
+20.1 +17.7 86 +23 +24 комфорт 1009.3 991.4
06 30.06 СВ 2 10 км {ливн. осадки} 9/4 600 м
[Cb calv Ac trans]
+21.6 +18.8 84 +26 +29 душно 1009.9 992.1 +19.8 2
09 30.06 СВ 3 10 км в посл. час ливневой дождь 9/5 600 м
[Cb calv Ac trans]
+24.6 +19.2 72 +30 +33 очень
душно
1010.2 992.6
12 30.06 СВ 4 10 км {ливн. осадки} 9/5 600 м
[Cb calv Ac trans]
+25.0 +17.7 64 +29 +32 душно 1010.2 992.6
15 30.06 СВ 4 10 км в посл. час гроза 9/6 600 м
[Cb calv Ac trans]
+24.1 +18.8 72 +29 +29 душно 1010.4 992.7
18 30.06 С 6 1800 м ливневой дождь {гроза} 9/8 600 м
[Cb calv Ac trans]
+21.6 +19.2 86 +27 +27 душно 1011.5 993.7 +25.9 5
21 30.06 С 4 10 км в посл. час гроза {ливн. осадки} 10/5 600 м
[Cb calv Ac und]
+20.5 +17.8 85 +24 +24 комфорт 1011.6 993.7
00 1.07 С 3 10 км {гроза, ливн. осадки} 8/5 1000 м
[Sc Ac trans]
+20.0 +17.4 85 +23 +23 комфорт 1011.8 993.9
03 1.07 С 3 10 км в посл. час ливневой дождь 9/6 600 м
[Cb calv Ac trans]
+19.5 +17.0 85 +22 +22 комфорт 1013.1 995.1
06 1.07 СВ 4 10 км {ливн. осадки} 8/4 1000 м
[Sc Ac trans]
+22.2 +17.0 72 +27 +29 душно 1013.3 995.5 +18.8 39
09 1.07 СВ 5 10 км 8/0
[Ac trans Ci fib]
+25.0 +18.0 65 +29 +35 душно 1013.6 995.9
12 1.07 СВ 5 10 км 8/3 1000 м
[Cu med, cong Ac trans Ci fib]
+27.1 +16.5 52 +31 +34 душно 1013.7 996.1
15 1.07 СВ 3 10 км 6/3 1000 м
[Cu med, cong Ac trans Ci fib]
+27.0 +16.2 52 +30 +32 душно 1014.0 996.4
18 1.07 С 2 10 км 5/0
[Ci fib]
+23.9 +15.5 59 +27 +27 жарко 1015.3 997.5 +27.4
21 1.07 С 3 10 км ясно +21.5 +14.2 63 +24 +24 комфорт 1016.1 998.2

 

Местоположение метеостанции Харьков (Харьковская область, Украина): широта 49.97 долгота 36.13 высота над уровнем моря 155 м.

В архиве по умолчанию представлена погода в Харькове за последнюю неделю. Архивные данные за месяц целиком и за предыдущие месяцы, начиная с января 2011 года, Вы можете получить, выбрав интересующий диапазон дат из раскрывающегося списка и нажав кнопку "Ввод!".

Внимание! Время в таблицах - всемирное. Для получения местного времени необходимо прибавить поправку, которая в Kharkiv равна 2 ч.

Ветер - указаны скорость ветра в м/с - средняя за 10 мин, порывы в срок и между сроками (в фигурных скобках) и направление, откуда дует ветер: С - северный, СВ - северо-восточный, В - восточный, ЮВ - юго-восточный, Ю - южный, ЮЗ - юго-западный, З - западный, СЗ - северо-западный.
Видимость - горизонтальная дальность видимости в метрах или километрах. При видимости от 1 до 10 км при отсутствии осадков обычно наблюдается дымка, при ухудшении видимости до 1 км и менее - туман. В сухую погоду видимость может ухудшаться дымом, пылью или мглою.
Явления - указаны атмосферные явления, наблюдавшиеся в срок или в последний час перед сроком; фигурными скобками обозначены явления, наблюдавшиеся между сроками (за 1-3 часа до срока); квадратными скобками обозначены град или гололедные отложения с указанием их диаметра в мм.
Облачность - указаны через наклонную черту общая и нижняя облачность в баллах и высота нижней границы облаков в метрах; квадратными скобками обозначены формы облаков: Ci - перистые, Cs - перисто-слоистые, Cc - перисто-кучевые, Ac - высококучевые, As - высокослоистые, Sc - слоисто-кучевые, Ns - слоисто-дождевые, Cu - кучевые, Cb - кучево-дождевые. Подробнее классификацию облаков см. в Атласе облаков (PDF).
T - Температура воздуха - температура, измеренная на высоте 2 м над землей.
Td - Температура точки росы - температура, при понижении до которой содержащийся в воздухе водяной пар достигнет насыщения.
f - Относительная влажность воздуха - влажноcть воздуха, измеренная на высоте 2 м над землей.
Te - Эффективная температура - температура, которую ощущает одетый по сезону человек в тени. Характеристика душности погоды. При расчете учитывается влияние влажности воздуха и скорости ветра на теплоощущения человека.
Tes - Эффективная температура на солнце - температура, которую ощущает человек, с поправкой на солнечный нагрев. Характеристика знойности погоды. Зависит от высоты солнца над горизонтом, облачности и скорости ветра. Ночью, в пасмурную погоду, а также при ветре 12 м/с и более поправка равна нулю.
P - Атмосферное давление - приведенное к уровню моря атмосферное давление.
Po - Атмосферное давление - измеренное на уровне метеостанции атмосферное давление.
Tmin - Минимальная температура - минимум температуры воздуха на высоте 2 м над землей.
Tmax - Максимальная температура - максимум температуры воздуха на высоте 2 м над землей.
R - Количество осадков - Количество выпавших осадков, мм. При наведении курсора мыши на число - период времени, за который выпало указанное количество осадков.
S - Снежный покров - Высота снежного покрова, см. При наведении курсора мыши на число - состояние снежного покрова и степень покрытия местности в баллах.